| time (UTC) | temp F | wind direction | speed MPH | gust MPH | rain 1hr in | rain 24hr in | rain mn in | humidity % | barometer mb |
| 20260510192017 | 57 | 21 | 7.0 | 14.0 | 0.00 | 0.00 | 0.00 | 68 | 1009.4 |
| 20260510191630 | 57 | 350 | 5.0 | 10.0 | 0.00 | 0.00 | 0.00 | 68 | 1009.5 |
| 20260510191600 | 57 | 37 | 5.0 | 14.0 | 0.00 | 0.00 | 0.00 | 68 | 1009.5 |
| 20260510191516 | 57 | 16 | 5.0 | 14.0 | 0.00 | 0.00 | 0.00 | 68 | 1009.5 |
| 20260510191038 | 57 | 16 | 5.0 | 10.0 | 0.00 | 0.00 | 0.00 | 68 | 1009.6 |
| 20260510190552 | 57 | 10 | 5.0 | 13.0 | 0.00 | 0.00 | 0.00 | 68 | 1009.5 |
| 20260510190516 | 57 | 17 | 5.0 | 13.0 | 0.00 | 0.00 | 0.00 | 68 | 1009.5 |
| 20260510190104 | 57 | 36 | 6.0 | 13.0 | 0.00 | 0.00 | 0.00 | 67 | 1009.5 |
| 20260510190016 | 57 | 15 | 6.0 | 13.0 | 0.00 | 0.00 | 0.00 | 67 | 1009.5 |
| 20260510185556 | 58 | 17 | 6.0 | 13.0 | 0.00 | 0.00 | 0.00 | 67 | 1009.5 |
| 20260510185516 | 58 | 14 | 7.0 | 13.0 | 0.00 | 0.00 | 0.00 | 67 | 1009.6 |
| 20260510185059 | 58 | 0 | 7.0 | 14.0 | 0.00 | 0.00 | 0.00 | 67 | 1009.5 |
| 20260510185016 | 58 | 17 | 7.0 | 15.0 | 0.00 | 0.00 | 0.00 | 67 | 1009.5 |
| 20260510184549 | 58 | 11 | 7.0 | 15.0 | 0.00 | 0.00 | 0.00 | 66 | 1009.5 |
| 20260510184515 | 58 | 19 | 7.0 | 15.0 | 0.00 | 0.00 | 0.00 | 66 | 1009.5 |
| 20260510184048 | 58 | 0 | 6.0 | 15.0 | 0.00 | 0.00 | 0.00 | 66 | 1009.5 |
| 20260510184016 | 58 | 20 | 6.0 | 13.0 | 0.00 | 0.00 | 0.00 | 66 | 1009.6 |
| 20260510183551 | 58 | 347 | 7.0 | 12.0 | 0.00 | 0.00 | 0.00 | 66 | 1009.4 |
| 20260510183515 | 58 | 19 | 7.0 | 12.0 | 0.00 | 0.00 | 0.00 | 66 | 1009.4 |
| 20260510183054 | 59 | 18 | 8.0 | 15.0 | 0.00 | 0.00 | 0.00 | 66 | 1009.5 |
| 20260510183016 | 59 | 22 | 8.0 | 15.0 | 0.00 | 0.00 | 0.00 | 66 | 1009.6 |
| 20260510182557 | 59 | 0 | 8.0 | 15.0 | 0.00 | 0.00 | 0.00 | 65 | 1009.5 |
| 20260510182516 | 59 | 22 | 8.0 | 15.0 | 0.00 | 0.00 | 0.00 | 65 | 1009.6 |
| 20260510182116 | 59 | 349 | 8.0 | 15.0 | 0.00 | 0.00 | 0.00 | 64 | 1009.5 |
| 20260510182051 | 59 | 13 | 8.0 | 15.0 | 0.00 | 0.00 | 0.00 | 65 | 1009.5 |
| 20260510182016 | 59 | 19 | 8.0 | 15.0 | 0.00 | 0.00 | 0.00 | 65 | 1009.6 |
| 20260510181515 | 59 | 17 | 8.0 | 15.0 | 0.00 | 0.00 | 0.00 | 64 | 1009.5 |
| 20260510181308 | 60 | 14 | 6.0 | 13.0 | 0.00 | 0.00 | 0.00 | 64 | 1009.6 |
| 20260510181016 | 60 | 14 | 6.0 | 13.0 | 0.00 | 0.00 | 0.00 | 64 | 1009.6 |
| 20260510180545 | 60 | 13 | 6.0 | 12.0 | 0.00 | 0.00 | 0.00 | 64 | 1009.5 |
| 20260510180516 | 60 | 14 | 7.0 | 12.0 | 0.00 | 0.00 | 0.00 | 64 | 1009.5 |
| 20260510180056 | 60 | 16 | 8.0 | 14.0 | 0.00 | 0.00 | 0.00 | 64 | 1009.6 |
| 20260510180017 | 60 | 18 | 8.0 | 14.0 | 0.00 | 0.00 | 0.00 | 64 | 1009.7 |
| 20260510175541 | 60 | 340 | 8.0 | 14.0 | 0.00 | 0.00 | 0.00 | 63 | 1009.6 |
| 20260510175515 | 60 | 17 | 7.0 | 14.0 | 0.00 | 0.00 | 0.00 | 63 | 1009.6 |
| 20260510175043 | 61 | 25 | 6.0 | 13.0 | 0.00 | 0.00 | 0.00 | 63 | 1009.6 |
| 20260510175016 | 61 | 13 | 6.0 | 13.0 | 0.00 | 0.00 | 0.00 | 63 | 1009.7 |
| 20260510174544 | 61 | 17 | 6.0 | 13.0 | 0.00 | 0.00 | 0.00 | 63 | 1009.5 |
| 20260510174516 | 61 | 14 | 6.0 | 13.0 | 0.00 | 0.00 | 0.00 | 63 | 1009.6 |
| 20260510174041 | 61 | 17 | 7.0 | 15.0 | 0.00 | 0.00 | 0.00 | 63 | 1009.7 |
| 20260510174016 | 61 | 18 | 6.0 | 15.0 | 0.00 | 0.00 | 0.00 | 63 | 1009.6 |
| 20260510173558 | 61 | 35 | 7.0 | 15.0 | 0.00 | 0.00 | 0.00 | 62 | 1009.7 |
| 20260510173517 | 61 | 22 | 7.0 | 15.0 | 0.00 | 0.00 | 0.00 | 62 | 1009.7 |
| 20260510173209 | 62 | 17 | 9.0 | 19.0 | 0.00 | 0.00 | 0.00 | 61 | 1009.7 |
| 20260510173058 | 62 | 42 | 8.0 | 19.0 | 0.00 | 0.00 | 0.00 | 62 | 1009.7 |
| 20260510173016 | 62 | 22 | 8.0 | 19.0 | 0.00 | 0.00 | 0.00 | 62 | 1009.8 |
| 20260510172515 | 62 | 25 | 9.0 | 19.0 | 0.00 | 0.00 | 0.00 | 61 | 1009.8 |
| 20260510172049 | 62 | 34 | 8.0 | 15.0 | 0.00 | 0.00 | 0.00 | 60 | 1009.7 |
| 20260510172017 | 62 | 26 | 8.0 | 15.0 | 0.00 | 0.00 | 0.00 | 60 | 1009.7 |
| 20260510171545 | 62 | 30 | 7.0 | 16.0 | 0.00 | 0.00 | 0.00 | 60 | 1009.7 |
| 20260510171537 | 62 | 24 | 7.0 | 16.0 | 0.00 | 0.00 | 0.00 | 60 | 1009.8 |
| 20260510171039 | 62 | 355 | 7.0 | 17.0 | 0.00 | 0.00 | 0.00 | 60 | 1009.7 |
| 20260510171016 | 62 | 25 | 7.0 | 17.0 | 0.00 | 0.00 | 0.00 | 60 | 1009.7 |
| 20260510170546 | 63 | 51 | 7.0 | 17.0 | 0.00 | 0.00 | 0.00 | 60 | 1009.6 |
| 20260510170515 | 63 | 18 | 7.0 | 17.0 | 0.00 | 0.00 | 0.00 | 60 | 1009.6 |
| 20260510170052 | 63 | 30 | 7.0 | 17.0 | 0.00 | 0.00 | 0.00 | 59 | 1009.6 |
| 20260510170017 | 63 | 15 | 7.0 | 17.0 | 0.00 | 0.00 | 0.00 | 59 | 1009.6 |
| 20260510165541 | 63 | 15 | 8.0 | 17.0 | 0.00 | 0.00 | 0.00 | 58 | 1009.7 |
| 20260510165516 | 63 | 22 | 8.0 | 17.0 | 0.00 | 0.00 | 0.00 | 58 | 1009.7 |
| 20260510165040 | 64 | 9 | 8.0 | 17.0 | 0.00 | 0.00 | 0.00 | 57 | 1009.8 |
| 20260510165037 | 64 | 19 | 8.0 | 17.0 | 0.00 | 0.00 | 0.00 | 57 | 1009.8 |
| 20260510164538 | 64 | 36 | 7.0 | 14.0 | 0.00 | 0.00 | 0.00 | 57 | 1009.7 |
| 20260510164516 | 64 | 22 | 7.0 | 14.0 | 0.00 | 0.00 | 0.00 | 57 | 1009.7 |
| 20260510164030 | 64 | 36 | 8.0 | 19.0 | 0.00 | 0.00 | 0.00 | 57 | 1009.5 |
| 20260510164016 | 64 | 24 | 8.0 | 19.0 | 0.00 | 0.00 | 0.00 | 56 | 1009.6 |
| 20260510163531 | 64 | 13 | 9.0 | 19.0 | 0.00 | 0.00 | 0.00 | 56 | 1009.6 |
| 20260510163516 | 64 | 22 | 9.0 | 19.0 | 0.00 | 0.00 | 0.00 | 56 | 1009.6 |
| 20260510163245 | 64 | 21 | 7.0 | 17.0 | 0.00 | 0.00 | 0.00 | 55 | 1009.8 |
| 20260510163109 | 64 | 334 | 8.0 | 18.0 | 0.00 | 0.00 | 0.00 | 55 | 1009.7 |
| 20260510163016 | 64 | 19 | 8.0 | 18.0 | 0.00 | 0.00 | 0.00 | 55 | 1009.7 |
| 20260510162515 | 64 | 16 | 7.0 | 17.0 | 0.00 | 0.00 | 0.00 | 55 | 1009.8 |
| 20260510162039 | 64 | 35 | 7.0 | 19.0 | 0.00 | 0.00 | 0.00 | 55 | 1009.8 |
| 20260510162016 | 64 | 17 | 7.0 | 19.0 | 0.00 | 0.00 | 0.00 | 55 | 1009.9 |
| 20260510161536 | 64 | 16 | 7.0 | 19.0 | 0.00 | 0.00 | 0.00 | 55 | 1010.0 |
| 20260510161529 | 65 | 11 | 7.0 | 19.0 | 0.00 | 0.00 | 0.00 | 55 | 1009.9 |
| 20260510161029 | 65 | 355 | 7.0 | 15.0 | 0.00 | 0.00 | 0.00 | 55 | 1010.0 |
| 20260510161016 | 65 | 17 | 7.0 | 15.0 | 0.00 | 0.00 | 0.00 | 55 | 1010.1 |
| 20260510160642 | 65 | 31 | 7.0 | 15.0 | 0.00 | 0.00 | 0.00 | 55 | 1010.1 |
| 20260510160600 | 65 | 345 | 7.0 | 15.0 | 0.00 | 0.00 | 0.00 | 55 | 1010.1 |
| 20260510160537 | 65 | 20 | 7.0 | 15.0 | 0.00 | 0.00 | 0.00 | 55 | 1010.0 |
| 20260510160037 | 65 | 22 | 7.0 | 15.0 | 0.00 | 0.00 | 0.00 | 55 | 1010.2 |
| 20260510155521 | 65 | 340 | 8.0 | 15.0 | 0.00 | 0.00 | 0.00 | 55 | 1010.2 |
| 20260510155515 | 65 | 19 | 8.0 | 15.0 | 0.00 | 0.00 | 0.00 | 55 | 1010.2 |
| 20260510155037 | 65 | 16 | 7.0 | 15.0 | 0.00 | 0.00 | 0.00 | 54 | 1010.3 |
| 20260510155028 | 65 | 48 | 7.0 | 15.0 | 0.00 | 0.00 | 0.00 | 54 | 1010.3 |
| 20260510154537 | 65 | 16 | 7.0 | 15.0 | 0.00 | 0.00 | 0.00 | 55 | 1010.3 |
| 20260510154529 | 65 | 0 | 7.0 | 15.0 | 0.00 | 0.00 | 0.00 | 55 | 1010.3 |
| 20260510154040 | 66 | 15 | 6.0 | 14.0 | 0.00 | 0.00 | 0.00 | 54 | 1010.5 |
| 20260510154023 | 65 | 35 | 7.0 | 15.0 | 0.00 | 0.00 | 0.00 | 54 | 1010.5 |
| 20260510154016 | 65 | 20 | 7.0 | 15.0 | 0.00 | 0.00 | 0.00 | 54 | 1010.5 |
| 20260510153536 | 66 | 26 | 6.0 | 15.0 | 0.00 | 0.00 | 0.00 | 54 | 1010.5 |
| 20260510153027 | 66 | 21 | 7.0 | 13.0 | 0.00 | 0.00 | 0.00 | 54 | 1010.5 |
| 20260510153016 | 66 | 25 | 7.0 | 13.0 | 0.00 | 0.00 | 0.00 | 54 | 1010.5 |
| 20260510152523 | 66 | 30 | 7.0 | 13.0 | 0.00 | 0.00 | 0.00 | 54 | 1010.6 |
| 20260510152515 | 66 | 21 | 7.0 | 13.0 | 0.00 | 0.00 | 0.00 | 54 | 1010.6 |
| 20260510152021 | 66 | 19 | 6.0 | 16.0 | 0.00 | 0.00 | 0.00 | 53 | 1010.6 |
| 20260510152016 | 66 | 21 | 6.0 | 16.0 | 0.00 | 0.00 | 0.00 | 53 | 1010.6 |
| 20260510151525 | 67 | 13 | 6.0 | 16.0 | 0.00 | 0.00 | 0.00 | 53 | 1010.7 |
| 20260510151515 | 67 | 22 | 6.0 | 16.0 | 0.00 | 0.00 | 0.00 | 53 | 1010.8 |
| 20260510151019 | 67 | 33 | 6.0 | 14.0 | 0.00 | 0.00 | 0.00 | 53 | 1010.8 |
| 20260510151016 | 67 | 20 | 6.0 | 14.0 | 0.00 | 0.00 | 0.00 | 53 | 1010.9 |
| 20260510150620 | 67 | 16 | 7.0 | 13.0 | 0.00 | 0.00 | 0.00 | 51 | 1010.9 |
| 20260510150542 | 67 | 0 | 6.0 | 13.0 | 0.00 | 0.00 | 0.00 | 53 | 1010.8 |
| 20260510150536 | 67 | 20 | 6.0 | 13.0 | 0.00 | 0.00 | 0.00 | 53 | 1010.9 |
| 20260510150016 | 67 | 21 | 7.0 | 13.0 | 0.00 | 0.00 | 0.00 | 51 | 1010.9 |
| 20260510145519 | 67 | 38 | 7.0 | 16.0 | 0.00 | 0.00 | 0.00 | 52 | 1010.8 |
| 20260510145517 | 67 | 18 | 7.0 | 16.0 | 0.00 | 0.00 | 0.00 | 52 | 1010.8 |
| 20260510145028 | 67 | 351 | 6.0 | 16.0 | 0.00 | 0.00 | 0.00 | 52 | 1010.8 |
| 20260510145016 | 68 | 13 | 6.0 | 16.0 | 0.00 | 0.00 | 0.00 | 52 | 1010.9 |
| 20260510144529 | 67 | 355 | 6.0 | 14.0 | 0.00 | 0.00 | 0.00 | 52 | 1010.9 |
| 20260510144515 | 68 | 16 | 6.0 | 14.0 | 0.00 | 0.00 | 0.00 | 52 | 1011.0 |
| 20260510144133 | 68 | 24 | 6.0 | 12.0 | 0.00 | 0.00 | 0.00 | 51 | 1011.0 |
| 20260510144037 | 68 | 30 | 6.0 | 14.0 | 0.00 | 0.00 | 0.00 | 51 | 1011.0 |
| 20260510144016 | 68 | 19 | 6.0 | 14.0 | 0.00 | 0.00 | 0.00 | 51 | 1011.0 |
| 20260510143516 | 68 | 19 | 6.0 | 12.0 | 0.00 | 0.00 | 0.00 | 51 | 1011.0 |
| 20260510143422 | 67 | 23 | 6.0 | 14.0 | 0.00 | 0.00 | 0.00 | 50 | 1011.1 |
| 20260510143326 | 67 | 0 | 6.0 | 14.0 | 0.00 | 0.00 | 0.00 | 51 | 1011.1 |
| 20260510143257 | 68 | 0 | 6.0 | 12.0 | 0.00 | 0.00 | 0.00 | 49 | 1011.1 |
| 20260510143105 | 68 | 0 | 7.0 | 14.0 | 0.00 | 0.00 | 0.00 | 51 | 1011.0 |
| 20260510143018 | 68 | 17 | 7.0 | 14.0 | 0.00 | 0.00 | 0.00 | 51 | 1011.0 |
| 20260510142516 | 67 | 20 | 6.0 | 14.0 | 0.00 | 0.00 | 0.00 | 50 | 1011.1 |
| 20260510142016 | 67 | 30 | 6.0 | 14.0 | 0.00 | 0.00 | 0.00 | 51 | 1011.1 |
| 20260510141517 | 68 | 23 | 6.0 | 12.0 | 0.00 | 0.00 | 0.00 | 49 | 1011.2 |
| 20260510141327 | 68 | 18 | 6.0 | 13.0 | 0.00 | 0.00 | 0.00 | 50 | 1011.2 |
| 20260510141016 | 68 | 16 | 6.0 | 13.0 | 0.00 | 0.00 | 0.00 | 51 | 1011.2 |
| 20260510140536 | 68 | 24 | 5.0 | 13.0 | 0.00 | 0.00 | 0.00 | 49 | 1011.3 |
| 20260510140526 | 68 | 36 | 5.0 | 13.0 | 0.00 | 0.00 | 0.00 | 49 | 1011.2 |
| 20260510140436 | 68 | 351 | 7.0 | 15.0 | 0.00 | 0.00 | 0.00 | 49 | 1011.3 |
| 20260510140057 | 67 | 28 | 6.0 | 15.0 | 0.00 | 0.00 | 0.00 | 50 | 1011.2 |
| 20260510140016 | 67 | 27 | 6.0 | 15.0 | 0.00 | 0.00 | 0.00 | 50 | 1011.3 |
| 20260510135536 | 68 | 26 | 7.0 | 15.0 | 0.00 | 0.00 | 0.00 | 49 | 1011.3 |
| 20260510135207 | 68 | 13 | 8.0 | 15.0 | 0.00 | 0.00 | 0.00 | 49 | 1011.3 |
| 20260510135100 | 68 | 30 | 7.0 | 15.0 | 0.00 | 0.00 | 0.00 | 48 | 1011.3 |
| 20260510135016 | 68 | 23 | 7.0 | 15.0 | 0.00 | 0.00 | 0.00 | 48 | 1011.3 |
| 20260510134541 | 68 | 35 | 8.0 | 15.0 | 0.00 | 0.00 | 0.00 | 50 | 1011.2 |
| 20260510134515 | 68 | 21 | 8.0 | 15.0 | 0.00 | 0.00 | 0.00 | 50 | 1011.3 |
| 20260510134016 | 68 | 19 | 8.0 | 15.0 | 0.00 | 0.00 | 0.00 | 49 | 1011.4 |
| 20260510133522 | 68 | 9 | 7.0 | 17.0 | 0.00 | 0.00 | 0.00 | 50 | 1011.3 |
| 20260510133515 | 68 | 22 | 7.0 | 17.0 | 0.00 | 0.00 | 0.00 | 50 | 1011.4 |
| 20260510133108 | 68 | 11 | 6.0 | 13.0 | 0.00 | 0.00 | 0.00 | 46 | 1011.5 |
| 20260510133037 | 68 | 25 | 6.0 | 17.0 | 0.00 | 0.00 | 0.00 | 49 | 1011.4 |
| 20260510133035 | 68 | 344 | 6.0 | 17.0 | 0.00 | 0.00 | 0.00 | 49 | 1011.4 |
| 20260510132515 | 68 | 19 | 6.0 | 13.0 | 0.00 | 0.00 | 0.00 | 46 | 1011.5 |
| 20260510132019 | 68 | 0 | 6.0 | 12.0 | 0.00 | 0.00 | 0.00 | 48 | 1011.5 |
| 20260510132015 | 68 | 18 | 6.0 | 12.0 | 0.00 | 0.00 | 0.00 | 48 | 1011.5 |
| 20260510131515 | 67 | 20 | 6.0 | 14.0 | 0.00 | 0.00 | 0.00 | 49 | 1011.5 |
| 20260510131037 | 67 | 31 | 5.0 | 14.0 | 0.00 | 0.00 | 0.00 | 48 | 1011.9 |
| 20260510131028 | 67 | 35 | 5.0 | 14.0 | 0.00 | 0.00 | 0.00 | 47 | 1011.9 |
| 20260510130518 | 68 | 38 | 4.0 | 12.0 | 0.00 | 0.00 | 0.00 | 48 | 1011.9 |
| 20260510130515 | 68 | 35 | 4.0 | 12.0 | 0.00 | 0.00 | 0.00 | 47 | 1011.9 |
| 20260510130041 | 68 | 0 | 6.0 | 12.0 | 0.00 | 0.00 | 0.00 | 47 | 1012.1 |
| 20260510130037 | 68 | 33 | 6.0 | 12.0 | 0.00 | 0.00 | 0.00 | 47 | 1012.1 |
| 20260510125519 | 68 | 19 | 7.0 | 12.0 | 0.00 | 0.00 | 0.00 | 46 | 1012.1 |
| 20260510125515 | 68 | 22 | 7.0 | 12.0 | 0.00 | 0.00 | 0.00 | 46 | 1012.2 |
| 20260510125016 | 68 | 9 | 7.0 | 13.0 | 0.00 | 0.00 | 0.00 | 47 | 1012.3 |
| 20260510125009 | 69 | 344 | 7.0 | 13.0 | 0.00 | 0.00 | 0.00 | 47 | 1012.3 |
| 20260510124515 | 68 | 15 | 7.0 | 14.0 | 0.00 | 0.00 | 0.00 | 47 | 1012.4 |
| 20260510124509 | 68 | 15 | 7.0 | 14.0 | 0.00 | 0.00 | 0.00 | 47 | 1012.3 |
| 20260510124016 | 68 | 21 | 6.0 | 14.0 | 0.00 | 0.00 | 0.00 | 46 | 1012.4 |
| 20260510124007 | 68 | 35 | 6.0 | 14.0 | 0.00 | 0.00 | 0.00 | 46 | 1012.3 |
| 20260510123525 | 68 | 40 | 7.0 | 17.0 | 0.00 | 0.00 | 0.00 | 45 | 1012.4 |
| 20260510123515 | 68 | 21 | 7.0 | 17.0 | 0.00 | 0.00 | 0.00 | 45 | 1012.4 |
| 20260510123019 | 68 | 29 | 8.0 | 17.0 | 0.00 | 0.00 | 0.00 | 46 | 1012.4 |
| 20260510123016 | 68 | 24 | 8.0 | 17.0 | 0.00 | 0.00 | 0.00 | 45 | 1012.4 |
| 20260510122515 | 68 | 25 | 7.0 | 14.0 | 0.00 | 0.00 | 0.00 | 45 | 1012.5 |
| 20260510122513 | 68 | 13 | 7.0 | 14.0 | 0.00 | 0.00 | 0.00 | 45 | 1012.5 |
| 20260510122229 | 68 | 12 | 6.0 | 13.0 | 0.00 | 0.00 | 0.00 | 45 | 1012.5 |
| 20260510122159 | 68 | 0 | 6.0 | 13.0 | 0.00 | 0.00 | 0.00 | 45 | 1012.5 |
| 20260510122142 | 68 | 17 | 6.0 | 12.0 | 0.00 | 0.00 | 0.00 | 45 | 1012.7 |
| 20260510122047 | 68 | 19 | 6.0 | 14.0 | 0.00 | 0.00 | 0.00 | 46 | 1012.4 |
| 20260510122016 | 68 | 26 | 6.0 | 14.0 | 0.00 | 0.00 | 0.00 | 46 | 1012.5 |
| 20260510121536 | 68 | 21 | 6.0 | 13.0 | 0.00 | 0.00 | 0.00 | 45 | 1012.5 |
| 20260510121016 | 68 | 18 | 6.0 | 13.0 | 0.00 | 0.00 | 0.00 | 45 | 1012.6 |
| 20260510120536 | 68 | 20 | 5.0 | 12.0 | 0.00 | 0.00 | 0.00 | 45 | 1012.8 |
| 20260510120028 | 69 | 11 | 5.0 | 13.0 | 0.00 | 0.00 | 0.00 | 44 | 1012.7 |
| 20260510120016 | 69 | 16 | 5.0 | 13.0 | 0.00 | 0.00 | 0.00 | 44 | 1012.7 |
| 20260510115516 | 69 | 19 | 5.0 | 13.0 | 0.00 | 0.00 | 0.00 | 45 | 1012.7 |
| 20260510115510 | 69 | 42 | 5.0 | 13.0 | 0.00 | 0.00 | 0.00 | 45 | 1012.7 |
| 20260510115441 | 67 | 28 | 8.0 | 14.0 | 0.00 | 0.00 | 0.00 | 47 | 1012.7 |
| 20260510115410 | 67 | 355 | 7.0 | 14.0 | 0.00 | 0.00 | 0.00 | 45 | 1012.8 |
| 20260510115355 | 68 | 51 | 6.0 | 14.0 | 0.00 | 0.00 | 0.00 | 46 | 1012.8 |
| 20260510115131 | 68 | 9 | 7.0 | 14.0 | 0.00 | 0.00 | 0.00 | 46 | 1012.6 |
| 20260510115015 | 68 | 25 | 7.0 | 14.0 | 0.00 | 0.00 | 0.00 | 46 | 1012.6 |
| 20260510114515 | 67 | 20 | 8.0 | 14.0 | 0.00 | 0.00 | 0.00 | 47 | 1012.7 |
| 20260510114015 | 68 | 15 | 7.0 | 14.0 | 0.00 | 0.00 | 0.00 | 45 | 1012.8 |
| 20260510113536 | 68 | 16 | 6.0 | 14.0 | 0.00 | 0.00 | 0.00 | 45 | 1012.9 |
| 20260510113017 | 67 | 14 | 7.0 | 15.0 | 0.00 | 0.00 | 0.00 | 47 | 1013.0 |
| 20260510113006 | 67 | 36 | 7.0 | 15.0 | 0.00 | 0.00 | 0.00 | 47 | 1012.9 |
| 20260510112515 | 67 | 11 | 5.0 | 15.0 | 0.00 | 0.00 | 0.00 | 47 | 1013.0 |
| 20260510112505 | 67 | 19 | 5.0 | 15.0 | 0.00 | 0.00 | 0.00 | 47 | 1012.9 |
| 20260510112156 | 67 | 9 | 6.0 | 15.0 | 0.00 | 0.00 | 0.00 | 47 | 1013.1 |
| 20260510112020 | 67 | 30 | 6.0 | 15.0 | 0.00 | 0.00 | 0.00 | 48 | 1013.0 |
| 20260510112017 | 67 | 19 | 6.0 | 15.0 | 0.00 | 0.00 | 0.00 | 48 | 1013.0 |
| 20260510111536 | 67 | 25 | 6.0 | 15.0 | 0.00 | 0.00 | 0.00 | 47 | 1013.0 |
| 20260510111016 | 67 | 24 | 6.0 | 14.0 | 0.00 | 0.00 | 0.00 | 47 | 1013.0 |
| 20260510111000 | 67 | 26 | 6.0 | 14.0 | 0.00 | 0.00 | 0.00 | 47 | 1012.9 |
| 20260510110516 | 67 | 23 | 7.0 | 14.0 | 0.00 | 0.00 | 0.00 | 47 | 1013.1 |
| 20260510110500 | 67 | 41 | 7.0 | 14.0 | 0.00 | 0.00 | 0.00 | 47 | 1013.1 |
| 20260510110016 | 67 | 18 | 6.0 | 14.0 | 0.00 | 0.00 | 0.00 | 47 | 1013.2 |
| 20260510110001 | 67 | 13 | 6.0 | 14.0 | 0.00 | 0.00 | 0.00 | 47 | 1013.2 |
| 20260510105742 | 67 | 63 | 6.0 | 12.0 | 0.00 | 0.00 | 0.00 | 47 | 1013.4 |
| 20260510105733 | 66 | 51 | 7.0 | 14.0 | 0.00 | 0.00 | 0.00 | 48 | 1013.2 |
| 20260510105547 | 67 | 342 | 6.0 | 13.0 | 0.00 | 0.00 | 0.00 | 48 | 1013.2 |
| 20260510105536 | 67 | 22 | 5.0 | 13.0 | 0.00 | 0.00 | 0.00 | 48 | 1013.2 |
| 20260510105036 | 66 | 27 | 6.0 | 12.0 | 0.00 | 0.00 | 0.00 | 47 | 1013.2 |
| 20260510104536 | 66 | 17 | 7.0 | 14.0 | 0.00 | 0.00 | 0.00 | 47 | 1013.3 |
| 20260510104017 | 66 | 18 | 7.0 | 14.0 | 0.00 | 0.00 | 0.00 | 48 | 1013.4 |
| 20260510104001 | 66 | 15 | 7.0 | 14.0 | 0.00 | 0.00 | 0.00 | 48 | 1013.4 |
| 20260510103515 | 66 | 24 | 7.0 | 14.0 | 0.00 | 0.00 | 0.00 | 47 | 1013.5 |
| 20260510103511 | 66 | 38 | 7.0 | 14.0 | 0.00 | 0.00 | 0.00 | 47 | 1013.4 |
| 20260510103015 | 66 | 25 | 7.0 | 17.0 | 0.00 | 0.00 | 0.00 | 47 | 1013.5 |
| 20260510102958 | 66 | 16 | 7.0 | 17.0 | 0.00 | 0.00 | 0.00 | 47 | 1013.5 |
| 20260510102515 | 66 | 20 | 7.0 | 17.0 | 0.00 | 0.00 | 0.00 | 48 | 1013.6 |
| 20260510102501 | 66 | 38 | 7.0 | 17.0 | 0.00 | 0.00 | 0.00 | 48 | 1013.5 |
| 20260510102016 | 66 | 16 | 7.0 | 16.0 | 0.00 | 0.00 | 0.00 | 49 | 1013.5 |
| 20260510102003 | 66 | 19 | 7.0 | 16.0 | 0.00 | 0.00 | 0.00 | 49 | 1013.5 |
| 20260510101515 | 66 | 21 | 6.0 | 16.0 | 0.00 | 0.00 | 0.00 | 49 | 1013.6 |
| 20260510101503 | 66 | 5 | 6.0 | 16.0 | 0.00 | 0.00 | 0.00 | 49 | 1013.6 |
| 20260510101217 | 65 | 38 | 5.0 | 12.0 | 0.00 | 0.00 | 0.00 | 49 | 1013.6 |
| 20260510101016 | 65 | 24 | 5.0 | 12.0 | 0.00 | 0.00 | 0.00 | 49 | 1013.7 |
| 20260510100611 | 65 | 350 | 6.0 | 14.0 | 0.00 | 0.00 | 0.00 | 51 | 1013.7 |
| 20260510100515 | 66 | 22 | 5.0 | 11.0 | 0.00 | 0.00 | 0.00 | 51 | 1013.6 |
| 20260510100508 | 65 | 10 | 5.0 | 11.0 | 0.00 | 0.00 | 0.00 | 51 | 1013.6 |
| 20260510100016 | 65 | 17 | 6.0 | 13.0 | 0.00 | 0.00 | 0.00 | 51 | 1013.7 |
| 20260510095515 | 65 | 14 | 6.0 | 14.0 | 0.00 | 0.00 | 0.00 | 51 | 1013.7 |
| 20260510095450 | 65 | 346 | 6.0 | 14.0 | 0.00 | 0.00 | 0.00 | 51 | 1013.7 |
| 20260510095015 | 64 | 17 | 6.0 | 14.0 | 0.00 | 0.00 | 0.00 | 51 | 1013.7 |
| 20260510094953 | 65 | 9 | 6.0 | 12.0 | 0.00 | 0.00 | 0.00 | 51 | 1013.7 |
| 20260510094515 | 64 | 27 | 6.0 | 14.0 | 0.00 | 0.00 | 0.00 | 52 | 1013.9 |
| 20260510094455 | 64 | 321 | 6.0 | 14.0 | 0.00 | 0.00 | 0.00 | 52 | 1013.8 |
| 20260510094017 | 64 | 29 | 6.0 | 14.0 | 0.00 | 0.00 | 0.00 | 52 | 1013.7 |
| 20260510094003 | 64 | 40 | 6.0 | 14.0 | 0.00 | 0.00 | 0.00 | 52 | 1013.7 |
| 20260510093515 | 64 | 25 | 7.0 | 14.0 | 0.00 | 0.00 | 0.00 | 53 | 1013.7 |
| 20260510093459 | 64 | 9 | 7.0 | 14.0 | 0.00 | 0.00 | 0.00 | 54 | 1013.7 |
| 20260510093018 | 63 | 23 | 7.0 | 14.0 | 0.00 | 0.00 | 0.00 | 53 | 1013.9 |
| 20260510092957 | 63 | 55 | 7.0 | 14.0 | 0.00 | 0.00 | 0.00 | 53 | 1013.9 |
| 20260510092515 | 63 | 20 | 6.0 | 12.0 | 0.00 | 0.00 | 0.00 | 54 | 1014.0 |
| 20260510092449 | 63 | 35 | 6.0 | 12.0 | 0.00 | 0.00 | 0.00 | 54 | 1013.9 |
| 20260510092015 | 63 | 22 | 5.0 | 12.0 | 0.00 | 0.00 | 0.00 | 54 | 1014.0 |
| 20260510091953 | 63 | 60 | 5.0 | 12.0 | 0.00 | 0.00 | 0.00 | 54 | 1013.9 |
| 20260510091740 | 62 | 40 | 6.0 | 15.0 | 0.00 | 0.00 | 0.00 | 56 | 1014.1 |
| 20260510091536 | 63 | 336 | 5.0 | 13.0 | 0.00 | 0.00 | 0.00 | 55 | 1014.2 |
| 20260510091515 | 63 | 25 | 5.0 | 13.0 | 0.00 | 0.00 | 0.00 | 55 | 1014.1 |
| 20260510091016 | 62 | 23 | 6.0 | 15.0 | 0.00 | 0.00 | 0.00 | 56 | 1014.2 |
| 20260510090515 | 62 | 24 | 6.0 | 15.0 | 0.00 | 0.00 | 0.00 | 55 | 1014.2 |
| 20260510090453 | 62 | 9 | 6.0 | 15.0 | 0.00 | 0.00 | 0.00 | 55 | 1014.2 |
| 20260510090016 | 61 | 26 | 6.0 | 13.0 | 0.00 | 0.00 | 0.00 | 56 | 1014.3 |
| 20260510085948 | 61 | 28 | 6.0 | 13.0 | 0.00 | 0.00 | 0.00 | 56 | 1014.2 |
| 20260510085515 | 61 | 20 | 7.0 | 15.0 | 0.00 | 0.00 | 0.00 | 56 | 1014.3 |
| 20260510085453 | 61 | 34 | 7.0 | 15.0 | 0.00 | 0.00 | 0.00 | 56 | 1014.4 |
| 20260510085055 | 60 | 59 | 7.0 | 16.0 | 0.00 | 0.00 | 0.00 | 56 | 1014.2 |
| 20260510085015 | 61 | 22 | 7.0 | 16.0 | 0.00 | 0.00 | 0.00 | 56 | 1014.2 |
| 20260510084959 | 61 | 355 | 7.0 | 16.0 | 0.00 | 0.00 | 0.00 | 56 | 1014.2 |
| 20260510084515 | 60 | 29 | 7.0 | 16.0 | 0.00 | 0.00 | 0.00 | 56 | 1014.3 |
| 20260510084015 | 60 | 25 | 6.0 | 14.0 | 0.00 | 0.00 | 0.00 | 56 | 1014.2 |
| 20260510083946 | 60 | 86 | 6.0 | 14.0 | 0.00 | 0.00 | 0.00 | 56 | 1014.2 |
| 20260510083515 | 60 | 27 | 6.0 | 14.0 | 0.00 | 0.00 | 0.00 | 56 | 1014.4 |
| 20260510083445 | 60 | 16 | 6.0 | 14.0 | 0.00 | 0.00 | 0.00 | 57 | 1014.3 |
| 20260510083015 | 60 | 27 | 6.0 | 13.0 | 0.00 | 0.00 | 0.00 | 58 | 1014.5 |
| 20260510082945 | 60 | 22 | 6.0 | 13.0 | 0.00 | 0.00 | 0.00 | 57 | 1014.4 |
| 20260510082515 | 59 | 26 | 6.0 | 12.0 | 0.00 | 0.00 | 0.00 | 57 | 1014.5 |
| 20260510082441 | 59 | 355 | 6.0 | 12.0 | 0.00 | 0.00 | 0.00 | 57 | 1014.5 |
| 20260510082016 | 59 | 27 | 6.0 | 14.0 | 0.00 | 0.00 | 0.00 | 57 | 1014.5 |
| 20260510081936 | 59 | 53 | 6.0 | 14.0 | 0.00 | 0.00 | 0.00 | 57 | 1014.5 |
| 20260510081515 | 59 | 19 | 5.0 | 14.0 | 0.00 | 0.00 | 0.00 | 59 | 1014.6 |
| 20260510081440 | 59 | 27 | 5.0 | 14.0 | 0.00 | 0.00 | 0.00 | 59 | 1014.6 |
| 20260510081015 | 59 | 17 | 4.0 | 11.0 | 0.00 | 0.00 | 0.00 | 61 | 1014.6 |
| 20260510080942 | 59 | 26 | 4.0 | 9.0 | 0.00 | 0.00 | 0.00 | 61 | 1014.5 |
| 20260510080638 | 58 | 9 | 6.0 | 13.0 | 0.00 | 0.00 | 0.00 | 61 | 1014.6 |
| 20260510080515 | 58 | 15 | 6.0 | 13.0 | 0.00 | 0.00 | 0.00 | 61 | 1014.6 |
| 20260510080513 | 58 | 28 | 6.0 | 13.0 | 0.00 | 0.00 | 0.00 | 61 | 1014.6 |
| 20260510080016 | 58 | 16 | 6.0 | 13.0 | 0.00 | 0.00 | 0.00 | 61 | 1014.5 |
| 20260510075515 | 58 | 18 | 7.0 | 16.0 | 0.00 | 0.00 | 0.00 | 61 | 1014.7 |
| 20260510075440 | 58 | 25 | 7.0 | 16.0 | 0.00 | 0.00 | 0.00 | 62 | 1014.6 |
| 20260510075036 | 58 | 17 | 7.0 | 16.0 | 0.00 | 0.00 | 0.00 | 62 | 1014.6 |
| 20260510074943 | 58 | 32 | 8.0 | 16.0 | 0.00 | 0.00 | 0.00 | 62 | 1014.6 |
| 20260510074514 | 57 | 14 | 7.0 | 14.0 | 0.00 | 0.00 | 0.00 | 62 | 1014.6 |
| 20260510074438 | 57 | 13 | 7.0 | 14.0 | 0.00 | 0.00 | 0.00 | 63 | 1014.6 |
| 20260510074108 | 57 | 17 | 6.0 | 13.0 | 0.00 | 0.00 | 0.00 | 64 | 1014.7 |
| 20260510074016 | 57 | 19 | 6.0 | 14.0 | 0.00 | 0.00 | 0.00 | 64 | 1014.6 |
| 20260510073952 | 57 | 15 | 6.0 | 14.0 | 0.00 | 0.00 | 0.00 | 64 | 1014.6 |
| 20260510073536 | 57 | 27 | 6.0 | 13.0 | 0.00 | 0.00 | 0.00 | 64 | 1014.7 |
| 20260510073015 | 56 | 26 | 7.0 | 14.0 | 0.00 | 0.00 | 0.00 | 65 | 1014.8 |
| 20260510072934 | 56 | 62 | 7.0 | 14.0 | 0.00 | 0.00 | 0.00 | 65 | 1014.7 |
| 20260510072536 | 56 | 19 | 6.0 | 14.0 | 0.00 | 0.00 | 0.00 | 65 | 1014.8 |
| 20260510072435 | 56 | 18 | 6.0 | 14.0 | 0.00 | 0.00 | 0.00 | 65 | 1014.7 |
| 20260510072036 | 56 | 21 | 5.0 | 14.0 | 0.00 | 0.00 | 0.00 | 67 | 1014.7 |
| 20260510071929 | 56 | 5 | 5.0 | 15.0 | 0.00 | 0.00 | 0.00 | 67 | 1014.7 |
| 20260510071656 | 55 | 39 | 6.0 | 11.0 | 0.00 | 0.00 | 0.00 | 70 | 1014.8 |
| 20260510071646 | 55 | 15 | 7.0 | 16.0 | 0.00 | 0.00 | 0.00 | 70 | 1014.8 |
| 20260510071515 | 56 | 24 | 6.0 | 15.0 | 0.00 | 0.00 | 0.00 | 68 | 1014.8 |
| 20260510071511 | 56 | 40 | 6.0 | 15.0 | 0.00 | 0.00 | 0.00 | 68 | 1014.8 |
| 20260510071015 | 55 | 22 | 6.0 | 15.0 | 0.00 | 0.00 | 0.00 | 69 | 1014.8 |
| 20260510070514 | 55 | 23 | 7.0 | 16.0 | 0.00 | 0.00 | 0.00 | 70 | 1014.8 |
| 20260510070015 | 54 | 22 | 7.0 | 16.0 | 0.00 | 0.00 | 0.00 | 72 | 1014.8 |
| 20260510065923 | 54 | 347 | 7.0 | 16.0 | 0.00 | 0.00 | 0.00 | 73 | 1014.8 |
| 20260510065514 | 54 | 21 | 6.0 | 14.0 | 0.00 | 0.00 | 0.00 | 76 | 1014.8 |
| 20260510065435 | 54 | 23 | 6.0 | 14.0 | 0.00 | 0.00 | 0.00 | 76 | 1014.7 |
| 20260510065015 | 54 | 22 | 5.0 | 13.0 | 0.00 | 0.00 | 0.00 | 78 | 1014.8 |
| 20260510064929 | 54 | 5 | 5.0 | 13.0 | 0.00 | 0.00 | 0.00 | 78 | 1014.8 |
| 20260510064538 | 53 | 30 | 5.0 | 13.0 | 0.00 | 0.00 | 0.00 | 80 | 1014.8 |
| 20260510064515 | 54 | 18 | 5.0 | 13.0 | 0.00 | 0.00 | 0.00 | 79 | 1014.9 |
| 20260510064447 | 54 | 5 | 5.0 | 13.0 | 0.00 | 0.00 | 0.00 | 79 | 1014.8 |
| 20260510064015 | 53 | 16 | 5.0 | 13.0 | 0.00 | 0.00 | 0.00 | 80 | 1014.9 |
| 20260510063535 | 53 | 17 | 5.0 | 11.0 | 0.00 | 0.00 | 0.00 | 81 | 1015.0 |
| 20260510063430 | 53 | 340 | 5.0 | 11.0 | 0.00 | 0.00 | 0.00 | 82 | 1014.9 |
| 20260510063038 | 53 | 15 | 5.0 | 11.0 | 0.00 | 0.00 | 0.00 | 82 | 1014.9 |
| 20260510062927 | 53 | 24 | 5.0 | 11.0 | 0.00 | 0.00 | 0.00 | 82 | 1014.9 |
| 20260510062515 | 53 | 14 | 5.0 | 9.0 | 0.00 | 0.00 | 0.00 | 83 | 1014.9 |
| 20260510062421 | 53 | 5 | 4.0 | 9.0 | 0.00 | 0.00 | 0.00 | 83 | 1014.9 |
| 20260510062015 | 52 | 18 | 4.0 | 9.0 | 0.00 | 0.00 | 0.00 | 84 | 1014.9 |
| 20260510061919 | 52 | 338 | 5.0 | 9.0 | 0.00 | 0.00 | 0.00 | 84 | 1014.8 |
| 20260510061515 | 52 | 16 | 5.0 | 10.0 | 0.00 | 0.00 | 0.00 | 85 | 1014.7 |
| 20260510061459 | 52 | 18 | 4.0 | 10.0 | 0.00 | 0.00 | 0.00 | 85 | 1014.9 |
| 20260510061423 | 52 | 24 | 5.0 | 10.0 | 0.00 | 0.00 | 0.00 | 85 | 1014.8 |
| 20260510061015 | 52 | 16 | 4.0 | 10.0 | 0.00 | 0.00 | 0.00 | 85 | 1014.9 |
| 20260510060515 | 52 | 22 | 4.0 | 8.0 | 0.00 | 0.00 | 0.00 | 86 | 1014.9 |
| 20260510060424 | 52 | 24 | 4.0 | 8.0 | 0.00 | 0.00 | 0.00 | 86 | 1014.9 |
| 20260510060016 | 52 | 18 | 4.0 | 9.0 | 0.00 | 0.00 | 0.00 | 86 | 1014.9 |
| 20260510055918 | 52 | 16 | 4.0 | 11.0 | 0.00 | 0.00 | 0.00 | 86 | 1014.9 |
| 20260510055515 | 52 | 17 | 4.0 | 11.0 | 0.00 | 0.00 | 0.00 | 86 | 1014.8 |
| 20260510055414 | 51 | 25 | 4.0 | 11.0 | 0.00 | 0.00 | 0.00 | 87 | 1014.8 |
| 20260510055015 | 51 | 22 | 4.0 | 11.0 | 0.00 | 0.00 | 0.00 | 87 | 1014.7 |
| 20260510054919 | 51 | 24 | 4.0 | 8.0 | 0.00 | 0.00 | 0.00 | 87 | 1014.8 |
| 20260510054515 | 51 | 21 | 4.0 | 10.0 | 0.00 | 0.00 | 0.00 | 87 | 1014.8 |
| 20260510054414 | 51 | 23 | 4.0 | 10.0 | 0.00 | 0.00 | 0.00 | 87 | 1014.8 |
| 20260510054037 | 51 | 18 | 4.0 | 10.0 | 0.00 | 0.00 | 0.00 | 87 | 1014.8 |
| 20260510053913 | 51 | 25 | 4.0 | 10.0 | 0.00 | 0.00 | 0.00 | 87 | 1014.7 |
| 20260510053514 | 51 | 15 | 3.0 | 9.0 | 0.00 | 0.00 | 0.00 | 88 | 1014.7 |
| 20260510053418 | 51 | 0 | 3.0 | 9.0 | 0.00 | 0.00 | 0.00 | 88 | 1014.7 |
| 20260510053344 | 51 | 21 | 3.0 | 9.0 | 0.00 | 0.00 | 0.00 | 88 | 1014.8 |
| 20260510053036 | 51 | 16 | 3.0 | 9.0 | 0.00 | 0.00 | 0.00 | 87 | 1014.8 |
| 20260510052515 | 50 | 16 | 3.0 | 7.0 | 0.00 | 0.00 | 0.00 | 88 | 1014.8 |
| 20260510052425 | 51 | 16 | 3.0 | 7.0 | 0.00 | 0.00 | 0.00 | 88 | 1014.7 |
| 20260510052015 | 50 | 17 | 3.0 | 9.0 | 0.00 | 0.00 | 0.00 | 88 | 1014.8 |
| 20260510051926 | 50 | 13 | 4.0 | 9.0 | 0.00 | 0.00 | 0.00 | 88 | 1014.7 |
| 20260510051515 | 50 | 18 | 4.0 | 9.0 | 0.00 | 0.00 | 0.00 | 88 | 1014.8 |
| 20260510051423 | 50 | 28 | 4.0 | 9.0 | 0.00 | 0.00 | 0.00 | 88 | 1014.7 |
| 20260510051036 | 50 | 16 | 3.0 | 9.0 | 0.00 | 0.00 | 0.00 | 88 | 1014.8 |
| 20260510050928 | 50 | 327 | 3.0 | 9.0 | 0.00 | 0.00 | 0.00 | 88 | 1014.8 |
| 20260510050535 | 50 | 19 | 3.0 | 9.0 | 0.00 | 0.00 | 0.00 | 88 | 1014.7 |
| 20260510050419 | 50 | 16 | 3.0 | 9.0 | 0.00 | 0.00 | 0.00 | 88 | 1014.7 |
| 20260510050015 | 50 | 20 | 3.0 | 9.0 | 0.00 | 0.00 | 0.00 | 88 | 1014.8 |
| 20260510045915 | 50 | 5 | 3.0 | 9.0 | 0.00 | 0.00 | 0.00 | 88 | 1014.8 |
| 20260510045514 | 50 | 14 | 2.0 | 6.0 | 0.00 | 0.00 | 0.00 | 88 | 1014.6 |
| 20260510045418 | 50 | 9 | 3.0 | 5.0 | 0.00 | 0.00 | 0.00 | 88 | 1014.7 |
| 20260510045015 | 50 | 15 | 3.0 | 6.0 | 0.00 | 0.00 | 0.00 | 88 | 1014.8 |
| 20260510044907 | 50 | 311 | 3.0 | 6.0 | 0.00 | 0.00 | 0.00 | 88 | 1014.8 |
| 20260510044514 | 50 | 19 | 3.0 | 6.0 | 0.00 | 0.00 | 0.00 | 88 | 1014.8 |
| 20260510044415 | 50 | 19 | 3.0 | 6.0 | 0.00 | 0.00 | 0.00 | 88 | 1014.8 |
| 20260510044036 | 50 | 17 | 3.0 | 6.0 | 0.00 | 0.00 | 0.00 | 87 | 1014.8 |
| 20260510043910 | 50 | 15 | 3.0 | 6.0 | 0.00 | 0.00 | 0.00 | 87 | 1014.8 |
| 20260510043537 | 50 | 15 | 2.0 | 6.0 | 0.00 | 0.00 | 0.00 | 87 | 1014.9 |
| 20260510043409 | 50 | 350 | 2.0 | 6.0 | 0.00 | 0.00 | 0.00 | 87 | 1014.9 |
| 20260510043015 | 50 | 15 | 2.0 | 6.0 | 0.00 | 0.00 | 0.00 | 87 | 1014.8 |
| 20260510042911 | 50 | 24 | 2.0 | 6.0 | 0.00 | 0.00 | 0.00 | 87 | 1014.8 |
| 20260510042515 | 50 | 7 | 2.0 | 4.0 | 0.00 | 0.00 | 0.00 | 87 | 1014.8 |
| 20260510042407 | 50 | 23 | 2.0 | 4.0 | 0.00 | 0.00 | 0.00 | 87 | 1014.8 |
| 20260510042015 | 50 | 1 | 2.0 | 4.0 | 0.00 | 0.00 | 0.00 | 87 | 1014.8 |
| 20260510041905 | 50 | 24 | 2.0 | 3.0 | 0.00 | 0.00 | 0.00 | 87 | 1014.8 |
| 20260510041514 | 50 | 1 | 2.0 | 4.0 | 0.00 | 0.00 | 0.00 | 87 | 1014.8 |
| 20260510041405 | 50 | 355 | 2.0 | 4.0 | 0.00 | 0.00 | 0.00 | 87 | 1014.8 |
| 20260510041015 | 50 | 2 | 1.0 | 4.0 | 0.00 | 0.00 | 0.00 | 86 | 1014.8 |
| 20260510040904 | 50 | 9 | 1.0 | 4.0 | 0.00 | 0.00 | 0.00 | 86 | 1014.8 |
| 20260510040515 | 50 | 355 | 1.0 | 4.0 | 0.00 | 0.00 | 0.00 | 86 | 1014.8 |
| 20260510040410 | 50 | 355 | 1.0 | 3.0 | 0.00 | 0.00 | 0.00 | 86 | 1014.8 |
| 20260510040016 | 50 | 356 | 1.0 | 3.0 | 0.00 | 0.00 | 0.00 | 86 | 1014.9 |
| 20260510035904 | 50 | 355 | 1.0 | 3.0 | 0.00 | 0.00 | 0.00 | 86 | 1014.8 |
| 20260510035514 | 50 | 1 | 1.0 | 3.0 | 0.00 | 0.00 | 0.00 | 86 | 1014.7 |
| 20260510035405 | 50 | 346 | 1.0 | 3.0 | 0.00 | 0.00 | 0.00 | 86 | 1014.7 |
| 20260510035015 | 50 | 360 | 1.0 | 4.0 | 0.00 | 0.00 | 0.00 | 86 | 1014.8 |
| 20260510034952 | 50 | 41 | 1.0 | 4.0 | 0.00 | 0.00 | 0.00 | 86 | 1014.7 |
| 20260510034912 | 50 | 5 | 1.0 | 4.0 | 0.00 | 0.00 | 0.00 | 86 | 1014.8 |
| 20260510034514 | 50 | 2 | 1.0 | 4.0 | 0.00 | 0.00 | 0.00 | 86 | 1014.8 |
| 20260510034015 | 50 | 12 | 2.0 | 4.0 | 0.00 | 0.00 | 0.00 | 85 | 1014.8 |
| 20260510033843 | 50 | 344 | 2.0 | 4.0 | 0.00 | 0.00 | 0.00 | 85 | 1014.7 |
| 20260510033515 | 50 | 17 | 2.0 | 4.0 | 0.00 | 0.00 | 0.00 | 85 | 1014.8 |
| 20260510033345 | 50 | 0 | 2.0 | 4.0 | 0.00 | 0.00 | 0.00 | 85 | 1014.8 |
| 20260510033015 | 50 | 7 | 2.0 | 4.0 | 0.00 | 0.00 | 0.00 | 85 | 1014.8 |
| 20260510032844 | 50 | 19 | 1.0 | 4.0 | 0.00 | 0.00 | 0.00 | 85 | 1014.8 |
| 20260510032514 | 50 | 357 | 1.0 | 3.0 | 0.00 | 0.00 | 0.00 | 85 | 1014.8 |
| 20260510032340 | 51 | 348 | 1.0 | 3.0 | 0.00 | 0.00 | 0.00 | 85 | 1014.8 |
| 20260510032015 | 51 | 5 | 1.0 | 3.0 | 0.00 | 0.00 | 0.00 | 84 | 1014.9 |
| 20260510031906 | 51 | 25 | 1.0 | 4.0 | 0.00 | 0.00 | 0.00 | 84 | 1014.8 |
| 20260510031842 | 51 | 350 | 1.0 | 3.0 | 0.00 | 0.00 | 0.00 | 84 | 1014.8 |
| 20260510031515 | 51 | 1 | 1.0 | 4.0 | 0.00 | 0.00 | 0.00 | 84 | 1014.9 |
| 20260510031015 | 51 | 360 | 1.0 | 4.0 | 0.00 | 0.00 | 0.00 | 84 | 1014.9 |
| 20260510030845 | 51 | 355 | 1.0 | 4.0 | 0.00 | 0.00 | 0.00 | 84 | 1014.7 |
| 20260510030515 | 51 | 3 | 1.0 | 4.0 | 0.00 | 0.00 | 0.00 | 84 | 1014.8 |
| 20260510030340 | 51 | 24 | 1.0 | 4.0 | 0.00 | 0.00 | 0.00 | 84 | 1014.8 |
| 20260510030036 | 51 | 2 | 2.0 | 4.0 | 0.00 | 0.00 | 0.00 | 83 | 1014.8 |
| 20260510025857 | 51 | 24 | 1.0 | 4.0 | 0.00 | 0.00 | 0.00 | 83 | 1014.8 |
| 20260510025846 | 51 | 350 | 2.0 | 4.0 | 0.00 | 0.00 | 0.00 | 83 | 1014.8 |
| 20260510025515 | 51 | 5 | 1.0 | 4.0 | 0.00 | 0.00 | 0.00 | 83 | 1014.9 |
| 20260510025014 | 51 | 7 | 1.0 | 3.0 | 0.00 | 0.00 | 0.00 | 83 | 1014.9 |
| 20260510024847 | 51 | 31 | 1.0 | 3.0 | 0.00 | 0.00 | 0.00 | 83 | 1014.8 |
| 20260510024515 | 51 | 6 | 1.0 | 3.0 | 0.00 | 0.00 | 0.00 | 83 | 1014.9 |
| 20260510024347 | 51 | 17 | 1.0 | 3.0 | 0.00 | 0.00 | 0.00 | 83 | 1015.0 |
| 20260510024015 | 51 | 6 | 1.0 | 3.0 | 0.00 | 0.00 | 0.00 | 83 | 1014.8 |
| 20260510023840 | 51 | 342 | 1.0 | 3.0 | 0.00 | 0.00 | 0.00 | 83 | 1014.8 |
| 20260510023514 | 51 | 16 | 2.0 | 4.0 | 0.00 | 0.00 | 0.00 | 82 | 1014.9 |
| 20260510023353 | 51 | 11 | 2.0 | 7.0 | 0.00 | 0.00 | 0.00 | 82 | 1014.8 |
| 20260510023341 | 51 | 19 | 2.0 | 7.0 | 0.00 | 0.00 | 0.00 | 82 | 1014.8 |
| 20260510023015 | 51 | 18 | 2.0 | 7.0 | 0.00 | 0.00 | 0.00 | 82 | 1014.8 |
| 20260510022514 | 52 | 18 | 2.0 | 7.0 | 0.00 | 0.00 | 0.00 | 82 | 1014.9 |
| 20260510022333 | 52 | 27 | 2.0 | 5.0 | 0.00 | 0.00 | 0.00 | 82 | 1014.8 |
| 20260510022326 | 51 | 15 | 2.0 | 5.0 | 0.00 | 0.00 | 0.00 | 82 | 1014.8 |
| 20260510022015 | 52 | 21 | 2.0 | 5.0 | 0.00 | 0.00 | 0.00 | 82 | 1014.9 |
| 20260510021515 | 52 | 22 | 1.0 | 4.0 | 0.00 | 0.00 | 0.00 | 81 | 1014.9 |
| 20260510021448 | 52 | 355 | 1.0 | 3.0 | 0.00 | 0.00 | 0.00 | 81 | 1015.0 |
| 20260510021354 | 52 | 29 | 1.0 | 3.0 | 0.00 | 0.00 | 0.00 | 81 | 1014.9 |
| 20260510021015 | 52 | 15 | 1.0 | 3.0 | 0.00 | 0.00 | 0.00 | 81 | 1014.9 |
| 20260510020824 | 52 | 16 | 1.0 | 3.0 | 0.00 | 0.00 | 0.00 | 81 | 1014.9 |
| 20260510020515 | 52 | 10 | 1.0 | 3.0 | 0.00 | 0.00 | 0.00 | 81 | 1015.0 |
| 20260510020015 | 52 | 5 | 1.0 | 3.0 | 0.00 | 0.00 | 0.00 | 80 | 1015.2 |
| 20260510015855 | 52 | 9 | 1.0 | 4.0 | 0.00 | 0.00 | 0.00 | 80 | 1015.2 |
| 20260510015818 | 52 | 9 | 1.0 | 3.0 | 0.00 | 0.00 | 0.00 | 80 | 1015.1 |
| 20260510015514 | 52 | 6 | 1.0 | 3.0 | 0.00 | 0.00 | 0.00 | 80 | 1015.1 |
| 20260510015016 | 52 | 1 | 1.0 | 4.0 | 0.00 | 0.00 | 0.00 | 80 | 1015.3 |
| 20260510014847 | 52 | 355 | 1.0 | 3.0 | 0.00 | 0.00 | 0.00 | 80 | 1015.3 |
| 20260510014800 | 52 | 17 | 1.0 | 4.0 | 0.00 | 0.00 | 0.00 | 80 | 1015.2 |
| 20260510014535 | 52 | 1 | 1.0 | 4.0 | 0.00 | 0.00 | 0.00 | 80 | 1015.3 |
| 20260510014014 | 52 | 8 | 1.0 | 3.0 | 0.00 | 0.00 | 0.00 | 80 | 1015.4 |
| 20260510013752 | 52 | 17 | 1.0 | 3.0 | 0.00 | 0.00 | 0.00 | 80 | 1015.3 |
| 20260510013536 | 52 | 358 | 1.0 | 3.0 | 0.00 | 0.00 | 0.00 | 80 | 1015.4 |
| 20260510013256 | 53 | 14 | 1.0 | 4.0 | 0.00 | 0.00 | 0.00 | 80 | 1015.2 |
| 20260510013036 | 52 | 6 | 1.0 | 4.0 | 0.00 | 0.00 | 0.00 | 80 | 1015.2 |
| 20260510012747 | 53 | 348 | 1.0 | 4.0 | 0.00 | 0.00 | 0.00 | 80 | 1015.1 |
| 20260510012535 | 53 | 17 | 2.0 | 4.0 | 0.00 | 0.00 | 0.00 | 80 | 1015.2 |
| 20260510012243 | 53 | 27 | 2.0 | 3.0 | 0.00 | 0.00 | 0.00 | 80 | 1015.1 |
| 20260510012015 | 53 | 17 | 2.0 | 4.0 | 0.00 | 0.00 | 0.00 | 79 | 1015.1 |
| 20260510011752 | 53 | 11 | 2.0 | 4.0 | 0.00 | 0.00 | 0.00 | 79 | 1015.1 |
| 20260510011536 | 53 | 18 | 2.0 | 4.0 | 0.00 | 0.00 | 0.00 | 79 | 1015.1 |
| 20260510011240 | 53 | 15 | 2.0 | 4.0 | 0.00 | 0.00 | 0.00 | 79 | 1015.1 |
| 20260510011015 | 53 | 19 | 2.0 | 4.0 | 0.00 | 0.00 | 0.00 | 79 | 1015.1 |
| 20260510010737 | 53 | 17 | 2.0 | 4.0 | 0.00 | 0.00 | 0.00 | 79 | 1015.1 |
| 20260510010536 | 53 | 19 | 1.0 | 4.0 | 0.00 | 0.00 | 0.00 | 79 | 1015.2 |
| 20260510010240 | 53 | 26 | 1.0 | 4.0 | 0.00 | 0.00 | 0.00 | 79 | 1015.2 |
| 20260510010015 | 53 | 20 | 1.0 | 4.0 | 0.00 | 0.00 | 0.00 | 79 | 1015.3 |
| 20260510005819 | 53 | 17 | 2.0 | 5.0 | 0.00 | 0.00 | 0.00 | 78 | 1015.2 |
| 20260510005746 | 53 | 20 | 2.0 | 5.0 | 0.00 | 0.00 | 0.00 | 79 | 1015.2 |
| 20260510005514 | 53 | 16 | 2.0 | 5.0 | 0.00 | 0.00 | 0.00 | 78 | 1015.3 |
| 20260510005016 | 53 | 18 | 2.0 | 5.0 | 0.00 | 0.00 | 0.00 | 78 | 1015.3 |
| 20260510004733 | 53 | 355 | 2.0 | 5.0 | 0.00 | 0.00 | 0.00 | 78 | 1015.2 |
| 20260510004516 | 53 | 23 | 2.0 | 5.0 | 0.00 | 0.00 | 0.00 | 78 | 1015.2 |
| 20260510004229 | 53 | 36 | 2.0 | 4.0 | 0.00 | 0.00 | 0.00 | 77 | 1015.1 |
| 20260510004015 | 53 | 12 | 2.0 | 5.0 | 0.00 | 0.00 | 0.00 | 77 | 1015.4 |
| 20260510003726 | 53 | 11 | 2.0 | 5.0 | 0.00 | 0.00 | 0.00 | 77 | 1015.3 |
| 20260510003515 | 53 | 6 | 2.0 | 5.0 | 0.00 | 0.00 | 0.00 | 77 | 1015.3 |
| 20260510003237 | 53 | 345 | 1.0 | 5.0 | 0.00 | 0.00 | 0.00 | 77 | 1015.4 |
| 20260510003015 | 53 | 6 | 1.0 | 3.0 | 0.00 | 0.00 | 0.00 | 76 | 1015.3 |
| 20260510002738 | 54 | 28 | 1.0 | 4.0 | 0.00 | 0.00 | 0.00 | 76 | 1015.4 |
| 20260510002726 | 53 | 0 | 1.0 | 3.0 | 0.00 | 0.00 | 0.00 | 76 | 1015.4 |
| 20260510002515 | 54 | 358 | 1.0 | 3.0 | 0.00 | 0.00 | 0.00 | 76 | 1015.5 |
| 20260510002016 | 54 | 350 | 1.0 | 4.0 | 0.00 | 0.00 | 0.00 | 76 | 1015.5 |
| 20260510001724 | 54 | 350 | 1.0 | 4.0 | 0.00 | 0.00 | 0.00 | 75 | 1015.5 |
| 20260510001514 | 54 | 352 | 1.0 | 4.0 | 0.00 | 0.00 | 0.00 | 75 | 1015.4 |
| 20260510001258 | 54 | 355 | 1.0 | 4.0 | 0.00 | 0.00 | 0.00 | 75 | 1015.3 |
| 20260510001234 | 54 | 5 | 1.0 | 2.0 | 0.00 | 0.00 | 0.00 | 75 | 1015.4 |
| 20260510001015 | 54 | 353 | 1.0 | 3.0 | 0.00 | 0.00 | 0.00 | 75 | 1015.4 |
| 20260510000515 | 54 | 351 | 1.0 | 4.0 | 0.00 | 0.00 | 0.00 | 75 | 1015.3 |
| 20260510000256 | 54 | 326 | 1.0 | 3.0 | 0.00 | 0.00 | 0.00 | 74 | 1015.4 |
| 20260510000227 | 54 | 0 | 1.0 | 4.0 | 0.00 | 0.00 | 0.00 | 74 | 1015.4 |
| 20260510000016 | 54 | 358 | 1.0 | 4.0 | 0.00 | 0.00 | 0.00 | 74 | 1015.4 |
| 20260509235514 | 54 | 3 | 1.0 | 3.0 | 0.00 | 0.00 | 0.00 | 74 | 1015.4 |
| 20260509235226 | 54 | 9 | 1.0 | 3.0 | 0.00 | 0.00 | 0.00 | 74 | 1015.5 |
| 20260509235015 | 54 | 1 | 1.0 | 3.0 | 0.00 | 0.00 | 0.00 | 74 | 1015.6 |
| 20260509234723 | 55 | 5 | 1.0 | 3.0 | 0.00 | 0.00 | 0.00 | 74 | 1015.5 |
| 20260509234535 | 54 | 6 | 1.0 | 3.0 | 0.00 | 0.00 | 0.00 | 74 | 1015.5 |
| 20260509234452 | 55 | 17 | 1.0 | 4.0 | 0.00 | 0.00 | 0.00 | 73 | 1015.5 |
| 20260509234015 | 55 | 12 | 1.0 | 4.0 | 0.00 | 0.00 | 0.00 | 73 | 1015.6 |
| 20260509233823 | 55 | 10 | 1.0 | 4.0 | 0.00 | 0.00 | 0.00 | 73 | 1015.5 |
| 20260509233735 | 55 | 355 | 1.0 | 4.0 | 0.00 | 0.00 | 0.00 | 73 | 1015.5 |
| 20260509233514 | 55 | 16 | 1.0 | 4.0 | 0.00 | 0.00 | 0.00 | 73 | 1015.6 |
| 20260509233016 | 55 | 17 | 1.0 | 4.0 | 0.00 | 0.00 | 0.00 | 72 | 1015.6 |
| 20260509232708 | 55 | 14 | 1.0 | 3.0 | 0.00 | 0.00 | 0.00 | 72 | 1015.6 |
| 20260509232535 | 55 | 16 | 1.0 | 4.0 | 0.00 | 0.00 | 0.00 | 72 | 1015.5 |
| 20260509232213 | 55 | 10 | 1.0 | 4.0 | 0.00 | 0.00 | 0.00 | 72 | 1015.5 |
| 20260509232014 | 55 | 19 | 1.0 | 4.0 | 0.00 | 0.00 | 0.00 | 72 | 1015.5 |
| 20260509231722 | 55 | 24 | 1.0 | 4.0 | 0.00 | 0.00 | 0.00 | 71 | 1015.5 |
| 20260509231515 | 55 | 30 | 1.0 | 4.0 | 0.00 | 0.00 | 0.00 | 71 | 1015.6 |
| 20260509231212 | 55 | 40 | 0.0 | 2.0 | 0.00 | 0.00 | 0.00 | 71 | 1015.6 |
| 20260509231014 | 55 | 30 | 0.0 | 2.0 | 0.00 | 0.00 | 0.00 | 71 | 1015.7 |
| 20260509230724 | 55 | 40 | 0.0 | 2.0 | 0.00 | 0.00 | 0.00 | 70 | 1015.7 |
| 20260509230514 | 55 | 20 | 0.0 | 2.0 | 0.00 | 0.00 | 0.00 | 70 | 1015.7 |
| 20260509230212 | 56 | 340 | 0.0 | 2.0 | 0.00 | 0.00 | 0.00 | 70 | 1015.7 |
| 20260509230015 | 56 | 25 | 0.0 | 2.0 | 0.00 | 0.00 | 0.00 | 69 | 1015.7 |
| 20260509225705 | 56 | 25 | 1.0 | 2.0 | 0.00 | 0.00 | 0.00 | 69 | 1015.7 |
| 20260509225536 | 56 | 22 | 0.0 | 3.0 | 0.00 | 0.00 | 0.00 | 69 | 1015.8 |
| 20260509225212 | 56 | 19 | 1.0 | 3.0 | 0.00 | 0.00 | 0.00 | 69 | 1015.8 |
| 20260509225015 | 56 | 17 | 0.0 | 3.0 | 0.00 | 0.00 | 0.00 | 69 | 1015.8 |
| 20260509224710 | 56 | 18 | 0.0 | 3.0 | 0.00 | 0.00 | 0.00 | 69 | 1015.7 |
| 20260509224514 | 56 | 356 | 1.0 | 3.0 | 0.00 | 0.00 | 0.00 | 68 | 1015.8 |
| 20260509224215 | 56 | 344 | 1.0 | 3.0 | 0.00 | 0.00 | 0.00 | 68 | 1015.8 |
| 20260509224014 | 56 | 1 | 1.0 | 4.0 | 0.00 | 0.00 | 0.00 | 68 | 1015.7 |
| 20260509223716 | 56 | 355 | 1.0 | 4.0 | 0.00 | 0.00 | 0.00 | 68 | 1015.7 |
| 20260509223514 | 56 | 14 | 2.0 | 4.0 | 0.00 | 0.00 | 0.00 | 68 | 1015.7 |
| 20260509223223 | 56 | 15 | 2.0 | 4.0 | 0.00 | 0.00 | 0.00 | 67 | 1015.7 |
| 20260509223211 | 56 | 0 | 2.0 | 4.0 | 0.00 | 0.00 | 0.00 | 68 | 1015.7 |
| 20260509223036 | 56 | 20 | 2.0 | 4.0 | 0.00 | 0.00 | 0.00 | 67 | 1015.7 |
| 20260509222514 | 56 | 16 | 2.0 | 4.0 | 0.00 | 0.00 | 0.00 | 67 | 1015.7 |
| 20260509222257 | 57 | 22 | 1.0 | 3.0 | 0.00 | 0.00 | 0.00 | 66 | 1015.6 |
| 20260509222222 | 56 | 20 | 2.0 | 4.0 | 0.00 | 0.00 | 0.00 | 66 | 1015.7 |
| 20260509222015 | 56 | 13 | 1.0 | 3.0 | 0.00 | 0.00 | 0.00 | 66 | 1015.8 |
| 20260509221515 | 57 | 19 | 1.0 | 3.0 | 0.00 | 0.00 | 0.00 | 66 | 1015.7 |
| 20260509221211 | 57 | 29 | 1.0 | 3.0 | 0.00 | 0.00 | 0.00 | 65 | 1015.7 |
| 20260509221015 | 57 | 12 | 1.0 | 3.0 | 0.00 | 0.00 | 0.00 | 65 | 1015.7 |
| 20260509220738 | 57 | 21 | 1.0 | 3.0 | 0.00 | 0.00 | 0.00 | 64 | 1015.7 |
| 20260509220657 | 57 | 355 | 1.0 | 3.0 | 0.00 | 0.00 | 0.00 | 64 | 1015.6 |
| 20260509220515 | 57 | 359 | 1.0 | 3.0 | 0.00 | 0.00 | 0.00 | 64 | 1015.8 |
| 20260509220043 | 57 | 8 | 1.0 | 3.0 | 0.00 | 0.00 | 0.00 | 64 | 1015.7 |
| 20260509215715 | 57 | 0 | 1.0 | 3.0 | 0.00 | 0.00 | 0.00 | 64 | 1015.6 |
| 20260509215535 | 57 | 22 | 1.0 | 3.0 | 0.00 | 0.00 | 0.00 | 63 | 1015.7 |
| 20260509215205 | 58 | 38 | 1.0 | 3.0 | 0.00 | 0.00 | 0.00 | 63 | 1015.7 |
| 20260509215036 | 58 | 16 | 1.0 | 4.0 | 0.00 | 0.00 | 0.00 | 63 | 1015.8 |
| 20260509214713 | 58 | 24 | 1.0 | 4.0 | 0.00 | 0.00 | 0.00 | 63 | 1015.6 |
| 20260509214515 | 58 | 22 | 1.0 | 4.0 | 0.00 | 0.00 | 0.00 | 63 | 1015.8 |
| 20260509214207 | 58 | 21 | 2.0 | 4.0 | 0.00 | 0.00 | 0.00 | 63 | 1015.7 |
| 20260509214015 | 58 | 21 | 2.0 | 4.0 | 0.00 | 0.00 | 0.00 | 62 | 1015.8 |
| 20260509213700 | 58 | 11 | 2.0 | 4.0 | 0.00 | 0.00 | 0.00 | 62 | 1015.6 |
| 20260509213514 | 58 | 19 | 2.0 | 4.0 | 0.00 | 0.00 | 0.00 | 62 | 1015.7 |
| 20260509213156 | 58 | 12 | 2.0 | 4.0 | 0.00 | 0.00 | 0.00 | 62 | 1015.6 |
| 20260509213036 | 58 | 20 | 2.0 | 5.0 | 0.00 | 0.00 | 0.00 | 62 | 1015.7 |
| 20260509212741 | 58 | 19 | 1.0 | 5.0 | 0.00 | 0.00 | 0.00 | 61 | 1015.7 |
| 20260509212712 | 58 | 32 | 2.0 | 5.0 | 0.00 | 0.00 | 0.00 | 61 | 1015.6 |
| 20260509212514 | 58 | 22 | 2.0 | 5.0 | 0.00 | 0.00 | 0.00 | 61 | 1015.7 |
| 20260509212014 | 59 | 22 | 1.0 | 4.0 | 0.00 | 0.00 | 0.00 | 61 | 1015.8 |
| 20260509211654 | 59 | 19 | 1.0 | 2.0 | 0.00 | 0.00 | 0.00 | 60 | 1015.7 |
| 20260509211535 | 59 | 19 | 1.0 | 2.0 | 0.00 | 0.00 | 0.00 | 60 | 1015.8 |
| 20260509211149 | 59 | 19 | 1.0 | 3.0 | 0.00 | 0.00 | 0.00 | 60 | 1015.7 |
| 20260509211015 | 59 | 15 | 1.0 | 3.0 | 0.00 | 0.00 | 0.00 | 60 | 1015.8 |
| 20260509210643 | 59 | 22 | 1.0 | 3.0 | 0.00 | 0.00 | 0.00 | 60 | 1015.8 |
| 20260509210514 | 59 | 11 | 1.0 | 3.0 | 0.00 | 0.00 | 0.00 | 60 | 1015.8 |
| 20260509210148 | 59 | 9 | 1.0 | 5.0 | 0.00 | 0.00 | 0.00 | 59 | 1015.7 |
| 20260509210016 | 59 | 20 | 1.0 | 5.0 | 0.00 | 0.00 | 0.00 | 59 | 1015.8 |
| 20260509205640 | 59 | 13 | 1.0 | 5.0 | 0.00 | 0.00 | 0.00 | 59 | 1015.7 |
| 20260509205514 | 59 | 27 | 2.0 | 5.0 | 0.00 | 0.00 | 0.00 | 59 | 1015.8 |
| 20260509205218 | 60 | 32 | 2.0 | 4.0 | 0.00 | 0.00 | 0.00 | 59 | 1015.8 |
| 20260509205156 | 60 | 59 | 2.0 | 4.0 | 0.00 | 0.00 | 0.00 | 59 | 1015.7 |
| 20260509205015 | 60 | 26 | 2.0 | 4.0 | 0.00 | 0.00 | 0.00 | 59 | 1015.8 |
| 20260509204516 | 60 | 24 | 2.0 | 4.0 | 0.00 | 0.00 | 0.00 | 58 | 1015.8 |
| 20260509204142 | 60 | 26 | 2.0 | 5.0 | 0.00 | 0.00 | 0.00 | 58 | 1015.9 |
| 20260509204015 | 60 | 23 | 2.0 | 5.0 | 0.00 | 0.00 | 0.00 | 58 | 1015.8 |
| 20260509203640 | 60 | 25 | 2.0 | 5.0 | 0.00 | 0.00 | 0.00 | 57 | 1015.8 |
| 20260509203514 | 60 | 21 | 2.0 | 5.0 | 0.00 | 0.00 | 0.00 | 58 | 1015.8 |
| 20260509203237 | 60 | 15 | 2.0 | 5.0 | 0.00 | 0.00 | 0.00 | 57 | 1015.6 |
| 20260509203158 | 60 | 344 | 2.0 | 5.0 | 0.00 | 0.00 | 0.00 | 57 | 1015.7 |
| 20260509203015 | 60 | 20 | 2.0 | 5.0 | 0.00 | 0.00 | 0.00 | 57 | 1015.8 |
| 20260509202534 | 60 | 21 | 1.0 | 5.0 | 0.00 | 0.00 | 0.00 | 57 | 1015.7 |
| 20260509202131 | 60 | 23 | 1.0 | 4.0 | 0.00 | 0.00 | 0.00 | 57 | 1015.6 |
| 20260509202016 | 61 | 21 | 1.0 | 4.0 | 0.00 | 0.00 | 0.00 | 57 | 1015.7 |
| 20260509201735 | 62 | 19 | 2.0 | 5.0 | 0.00 | 0.00 | 0.00 | 55 | 1015.8 |
| 20260509201635 | 61 | 19 | 2.0 | 5.0 | 0.00 | 0.00 | 0.00 | 56 | 1015.6 |
| 20260509201514 | 61 | 27 | 2.0 | 5.0 | 0.00 | 0.00 | 0.00 | 56 | 1015.7 |
| 20260509201436 | 62 | 19 | 2.0 | 5.0 | 0.00 | 0.00 | 0.00 | 55 | 1015.8 |
| 20260509201232 | 61 | 33 | 2.0 | 5.0 | 0.00 | 0.00 | 0.00 | 56 | 1015.7 |
| 20260509201014 | 61 | 30 | 2.0 | 5.0 | 0.00 | 0.00 | 0.00 | 55 | 1015.6 |
| 20260509200647 | 61 | 28 | 2.0 | 5.0 | 0.00 | 0.00 | 0.00 | 56 | 1015.6 |
| 20260509200516 | 61 | 27 | 2.0 | 4.0 | 0.00 | 0.00 | 0.00 | 55 | 1015.8 |
| 20260509200144 | 61 | 33 | 2.0 | 5.0 | 0.00 | 0.00 | 0.00 | 55 | 1015.8 |
| 20260509200015 | 61 | 23 | 2.0 | 5.0 | 0.00 | 0.00 | 0.00 | 55 | 1015.8 |
| 20260509195536 | 62 | 25 | 2.0 | 5.0 | 0.00 | 0.00 | 0.00 | 55 | 1015.8 |
| 20260509195133 | 62 | 26 | 1.0 | 3.0 | 0.00 | 0.00 | 0.00 | 55 | 1015.8 |
| 20260509195014 | 62 | 31 | 1.0 | 3.0 | 0.00 | 0.00 | 0.00 | 55 | 1015.8 |
| 20260509194624 | 62 | 26 | 1.0 | 3.0 | 0.00 | 0.00 | 0.00 | 55 | 1015.8 |
| 20260509194514 | 62 | 27 | 1.0 | 4.0 | 0.00 | 0.00 | 0.00 | 55 | 1015.8 |
| 20260509194124 | 62 | 39 | 2.0 | 4.0 | 0.00 | 0.00 | 0.00 | 54 | 1015.8 |
| 20260509194014 | 62 | 22 | 2.0 | 4.0 | 0.00 | 0.00 | 0.00 | 54 | 1015.8 |
| 20260509193623 | 62 | 13 | 2.0 | 4.0 | 0.00 | 0.00 | 0.00 | 54 | 1015.7 |
| 20260509193515 | 62 | 21 | 2.0 | 4.0 | 0.00 | 0.00 | 0.00 | 54 | 1015.8 |
| 20260509193117 | 63 | 0 | 2.0 | 4.0 | 0.00 | 0.00 | 0.00 | 53 | 1015.7 |
| 20260509193014 | 63 | 21 | 2.0 | 4.0 | 0.00 | 0.00 | 0.00 | 53 | 1015.8 |
| 20260509192616 | 63 | 18 | 2.0 | 6.0 | 0.00 | 0.00 | 0.00 | 53 | 1015.8 |
| 20260509192514 | 63 | 21 | 2.0 | 6.0 | 0.00 | 0.00 | 0.00 | 53 | 1015.8 |
| 20260509192128 | 63 | 43 | 2.0 | 6.0 | 0.00 | 0.00 | 0.00 | 53 | 1015.7 |